Location: Schommer Observatory
(40.5200°N, 74.4500°W)
Time: 14:32:00
(UTC-04:00)

Envisat - Pass Details

Date: 21 May 2018
Orbit: 764 x 766 km, 98.2° (Epoch: 20 August)

Event Time Altitude Azimuth Distance (km) Brightness Sun altitude
Rises 21:31:49 0° 209° (SSW) 3,215 6.1 -13.1°
Reaches altitude 10° 21:34:57 10° 230° (SW) 2,295 5.6 -13.5°
Maximum altitude 21:38:06 17° 269° (W) 1,886 5.6 -13.9°
Drops below altitude 10° 21:41:17 10° 308° (NW) 2,306 6.9 -14.4°
Sets 21:44:28 0° 329° (NNW) 3,239 7.9 -14.8°
